Regional Weather Roundup
Issued by NWS Burlington, VT

Home | Current Version | Previous Version | Text Only | Print | Product List | Glossary On
Versions: 1 2 3 4 5 6 7 8 9 10 11 12 13 14 15 16 17 18 19 20 21 22 23 24 25 26 27 28 29 30 31 32 33 34 35 36 37 38 39 40 41 42 43 44 45 46 47 48 49 50
000
ASUS41 KBTV 011710
RWRBTV
VERMONT REGIONAL WEATHER ROUNDUP
NATIONAL WEATHER SERVICE BURLINGTON VT
100 PM EDT WED OCT 01 2014

NOTE: "FAIR" INDICATES FEW OR NO CLOUDS BELOW 12,000 FEET WITH NO
SIGNIFICANT WEATHER AND/OR OBSTRUCTIONS TO VISIBILITY.

* THESE REPORTS ARE NOT UNDER NWS QUALITY CONTROL AND/OR DO NOT
  REPORT WEATHER SUCH AS PRECIPITATION AND FOG.

VTZ001>019-011800-
_____VERMONT_____


CITY           SKY/WX    TMP DP  RH WIND       PRES   REMARKS
BURLINGTON     CLOUDY    57  52  83 NW8       30.14F
MONTPELIER     CLOUDY    61  52  72 NE6       30.16F
MORRISVILLE    PTSUNNY   63  53  70 N5        30.14F
ST. JOHNSBURY*   N/A     63  52  67 MISG      30.11F
MIDDLEBURY*    CLOUDY    60  58  93 N8        30.12F
RUTLAND*       CLOUDY    61  54  77 CALM      30.11F
SPRINGFIELD    CLOUDY    61  56  83 CALM      30.12F
HIGHGATE*      CLOUDY    53  50  90 CALM      30.15F FOG
NEWPORT*       CLOUDY   N/A N/A N/A N7        30.15F
BENNINGTON     CLOUDY    63  55  75 N6        30.10F

_____LAKE CHAMPLAIN_____


CITY           SKY/WX    TMP DP  RH WIND       PRES   REMARKS
COLCHESTER RF*   N/A     54  52  94 N8          N/A
DIAMOND ISL*     N/A     54  52  94 N16         N/A

$$

NYZ007-026>031-035-052-083-011800-
_____NORTHERN NEW YORK_____


CITY           SKY/WX    TMP DP  RH WIND       PRES   REMARKS
PLATTSBURGH    CLOUDY    54  50  86 NE6       30.15F
SARANAC LAKE   MOSUNNY   65  54  67 NE9       30.10F
MASSENA        CLOUDY    59  53  80 NE10      30.14F
OGDENSBURG*    CLOUDY    63  54  72 E8        30.11F
POTSDAM*       CLOUDY    59  55  88 E8        30.11F
WATERTOWN      SUNNY     68  55  63 NE10      30.08F
FT DRUM        SUNNY     64  54  69 N5        30.08F
ALBANY         CLOUDY    64  57  78 VRB3      30.10F
GLENS FALLS    CLOUDY    64  54  69 N9        30.10F

$$
NHZ002-005-011-011800-
_____NEW HAMPSHIRE_____


CITY           SKY/WX    TMP DP  RH WIND       PRES   REMARKS
LEBANON        CLOUDY    62  56  80 NE5       30.11F
KEENE          CLOUDY    59  50  72 N6        30.11F
MT WASHINGTON  FOG       46  46 100 E5          N/A  VSB 1/8
PLYMOUTH       CLOUDY    60  57  88 CALM      30.12F
WHITEFIELD       N/A     61  51  70 MISG      30.13F

$$

_____REGIONAL QUEBEC LOCATIONS_____


CITY           SKY/WX    TMP DP  RH WIND       PRES   REMARKS
MONTREAL       CLOUDY    59  52  77 NE13      30.15F
SHERBROOKE     CLOUDY    61  54  77 VRB2      30.15F

_____REGIONAL ONTARIO LOCATIONS_____


CITY           SKY/WX    TMP DP  RH WIND       PRES   REMARKS
OTTAWA         MOSUNNY   64  54  68 E3        30.14F

______KEY______
VSB  - VISIBILITY IN MILES
WCI  - WIND CHILL INDEX
HX   - HEAT INDEX
$$
NNNN


USA.gov is the U.S. government's official web portal to all federal, state and local government web resources and services.